User: anonymous   Login
Location: Salamanca
(40.9670°N, 5.6500°W)
Time: 08:11:08
(UTC+02:00)
Language:

Cosmos 1633 Rocket - Orbit

View from above orbital plane
View from above orbital plane
View from above satellite
View from above satellite

Ground track
Ground track

The orbit data is extracted from the following two-line orbital elements,

1 15593U 85020B   15183.74007873  .00000146  00000-0  14686-4 0  9992
2 15593 082.5368 212.0584 0010309 238.6072 175.6735 14.84069111638253
Epoch (UTC): 02 July 2015 17:45:42
Eccentricity: 0.0010309
inclination: 82.5368°
perigee height: 609 km
apogee height: 624 km
right ascension of ascending node: 212.0584°
argument of perigee: 238.6072°
revolutions per day: 14.84069111
mean anomaly at epoch: 175.6735°
orbit number at epoch: 63825

The dashed part of the orbit path shows where the satellite is in the earth's shadow,  

DLR